OBJECT L, 62387

Orbit data source: Space-Track

You're viewing an Uncataloged Satellite

Recently launched and/or uncataloged satellites may have evolving metadata. Metadata may include but not limited to: Owner, Maufacturer, Bus, Motor, and Mission.

OBJECT L, 62387 is a satellite in LEO that was launched on Sat, 21 Dec 2024 UTC via an FALCON 9 launch vehicle from the Air Force Western Test Range (AFWTR). Unknown objects in Earth's orbit typically refer to objects detected orbiting the Earth but have not yet been identified or cataloged. These objects could be anything from previously untracked satellites, spent rocket stages, debris from satellite collisions, or even natural meteoroids temporarily captured by Earth's gravity.

Loading next visibility...
Identifier
62387, 2024-247L
Orbit
LEO
Country
Flag of TBDTBD
Related business
None
Manufacturer
Unknown
Mission
Operational Amateur Technology
Bus & Motor
Unknown
Mass
Unknown
Launch date (UTC)
2024-12-21 (1 year ago)
Launch vehicle
FALCON 9
Launch site
Air Force Western Test Range (AFWTR)
Object type
Unknown
Shape & HBR
Box, 0.1 m
Radar Cross Section
0.015 m², Small (<0.1 m²)

Expand to show TLE details & history
Last TLE update: 18 hours ago

TLE from 18 hours ago
0 OBJECT L
1 62387U 24247L   25349.28460528  .00018614  00000-0  49439-3 0  9995
2 62387  44.9913 200.3717 0008725 209.9856 150.0532 15.38021421 55035
Epoch: 2025-12-15T06:49Z
TLE epoch observation values (Epoch: 2025-12-15T06:49:49.896Z)
Latitude
-0.00001°
Longitude
13.72841°
Altitude
457.123 km
Speed
7.637 km/s
True Right ascension
13h 21m 29s
True Declination
0° 00' 00"
Sunlit
Object was in daylight at epoch
Visualization orbit readout
Latitude
Unknown
Longitude
Unknown
Altitude
Unknown
Speed
Unknown
Apparent Right ascension
Unknown
Apparent Declination
Unknown
Sunlit
N/A
Visualization observer readout
Local Sidereal Time
23:41:41
Azimuth
Unknown
Elevation
Unknown
Doppler factor
Unknown
Orbital elements
Apogee altitude
459.539 km
Perigee altitude
447.618 km
Semi-major axis
6,831.716 km
Eccentricity
0.00087
Inclination
44.9913°
RAAN
200.3717°
Arg. of periapsis
209.9856°
True anomaly
150.10306°
Mean anomaly
150.0532°
Eccentric anomaly
150.07814°
Mean motion
3.84369 °/min
Orbital period
93.66 mins
BSTAR
0.00049439
Loading maneuver chart data...
Computing Atmospheric mass density...
Loading historical data...
Loading historical data...
Loading historical data...
Loading historical data...
Loading historical data...
Loading historical data...
Loading historical data...

Documentation

Showing up to 5 results
|